(164462) = 2006 DW148

Discovered at Kitt Peak on 2006-02-25 by Spacewatch.

Orbit

Orbit type: Main Belt

Note: WebGL enabled browser required.

epoch2024-03-31.0
epoch JD2460400.5
perihelion date2021-11-07.34385
perihelion JD2459525.84385
argument of perihelion (°)314.91422
ascending node (°)330.62147
inclination (°)1.92116
eccentricity0.1801357
perihelion distance (AU)1.9566278
Tisserand w.r.t. Jupiter3.5
ΔV w.r.t. Earth (km/sec)8.7
semimajor axis (AU)2.3865265
mean anomaly (°)233.82546
mean daily motion (°/day)0.26733420
aphelion distance (AU)2.816
period (years)3.69
P-vector [x]0.26803391
P-vector [y]-0.87419901
P-vector [z]-0.40488754
Q-vector [x]0.96326909
Q-vector [y]0.23600459
Q-vector [z]0.12811903
absolute magnitude17.15
phase slope0.15
uncertainty0
referenceMPEC 2024-E144
observations used429
oppositions20
arc length (days)10005
first opposition used1996
last opposition used2024
residual rms (arc-secs)0.79
perturbers coarse indicatorM-v
perturbers precise indicator003Ek
first observation date used1996-10-18.0
last observation date used2024-03-10.0
computer nameMPCLINUX
JD of orbit computation2456909.209821
perihelion JD uncertainty (days)3.8124E-05
argument of perihelion uncertainty (°)1.1275E-04
ascending node uncertainty (°)1.1210E-04
inclination uncertainty (°)4.2022E-06
eccentricity uncertainty 3.8665E-08
perihelion distance uncertainty (AU)9.4586E-08
Minimum Orbit Intersection Distances (in AU)
for orbit epoch: 2460400.5, reference: E2024-EE4
Mercury1.50014
Venus1.22894
Earth0.94059
Mars0.50808
Jupiter2.33216
Saturn6.23845
Uranus15.7846
Neptune27.1861

Observations

441 total observations over interval: 1996 10 18.31006 – 2024 03 10.249977
These data are available for download (format description).

Date (UT) J2000 RA J2000 Dec Magn Location Ref
1996 10 18.31006 01 10 41.81 +10 17 16.7 20.1 V 691 – Steward Observatory, Kitt Peak-Spacewatch MPS 169197
1996 10 18.33146 01 10 40.54 +10 17 09.7   691 – Steward Observatory, Kitt Peak-Spacewatch MPS 169197
1996 10 18.35323 01 10 39.23 +10 17 02.2   691 – Steward Observatory, Kitt Peak-Spacewatch MPS 169197
1998 01 23.26385 08 00 32.17 +22 08 50.0 21.3 V 691 – Steward Observatory, Kitt Peak-Spacewatch MPS 169197
1998 01 23.28624 08 00 30.69 +22 08 53.3 21.1 V 691 – Steward Observatory, Kitt Peak-Spacewatch MPS 169197
1998 01 23.30877 08 00 29.17 +22 08 56.7 21.2 V 691 – Steward Observatory, Kitt Peak-Spacewatch MPS 169197
2000 11 30.27518 03 23 59.07 +21 45 17.2 20.7 V 691 – Steward Observatory, Kitt Peak-Spacewatch MPS 169197
2000 11 30.29795 03 23 57.70 +21 45 10.6 21.2 V 691 – Steward Observatory, Kitt Peak-Spacewatch MPS 169197
2000 11 30.32027 03 23 56.36 +21 45 05.4 21.1 V 691 – Steward Observatory, Kitt Peak-Spacewatch MPS 169197
2002 01 14.35822 10 21 17.89 +10 50 05.1 21.8 V 291 – LPL/Spacewatch II MPS 169197
2002 01 14.37872 10 21 17.26 +10 50 07.9 21.8 V 291 – LPL/Spacewatch II MPS 169197
2002 01 14.39943 10 21 16.67 +10 50 10.7 21.7 V 291 – LPL/Spacewatch II MPS 169197
2002 02 07.43722 10 03 30.15 +12 15 41.9 20.9 V 691 – Steward Observatory, Kitt Peak-Spacewatch MPS 169197
2002 02 07.45923 10 03 28.84 +12 15 47.4 21.0 V 691 – Steward Observatory, Kitt Peak-Spacewatch MPS 169197
2002 02 07.48146 10 03 27.55 +12 15 53.9 21.1 V 691 – Steward Observatory, Kitt Peak-Spacewatch MPS 169197
2003 07 05.39522 21 24 11.63 -17 09 50.2 20.2 V 691 – Steward Observatory, Kitt Peak-Spacewatch MPS 169197
2003 07 05.42316 21 24 11.03 -17 09 51.3 20.0 V 691 – Steward Observatory, Kitt Peak-Spacewatch MPS 169197
2003 07 05.45120 21 24 10.43 -17 09 52.6 20.0 V 691 – Steward Observatory, Kitt Peak-Spacewatch MPS 169197
2003 07 08.36109 21 23 08.51 -17 12 29.5 19.2   644 – Palomar Mountain/NEAT MPS 169197
2003 07 08.38272 21 23 07.91 -17 12 31.3 18.9   644 – Palomar Mountain/NEAT MPS 169197
2003 07 08.40390 21 23 07.31 -17 12 32.7 19.3   644 – Palomar Mountain/NEAT MPS 169197
2003 08 04.28449 21 03 04.81 -18 09 12.1 19.2   704 – Lincoln Laboratory ETS, New Mexico MPS 169197
2003 08 04.29519 21 03 04.14 -18 09 13.8 19.9   704 – Lincoln Laboratory ETS, New Mexico MPS 169197
2003 08 04.30561 21 03 03.44 -18 09 14.6 20.0   704 – Lincoln Laboratory ETS, New Mexico MPS 169197
2003 08 04.31605 21 03 02.97 -18 09 16.4 20.0   704 – Lincoln Laboratory ETS, New Mexico MPS 169197
2003 08 04.32642 21 03 02.35 -18 09 18.0 19.7   704 – Lincoln Laboratory ETS, New Mexico MPS 169197
2003 08 25.21304 20 45 40.10 -18 45 09.0 18.8   704 – Lincoln Laboratory ETS, New Mexico MPS 169197
2003 08 25.22540 20 45 39.61 -18 45 08.7 19.6   704 – Lincoln Laboratory ETS, New Mexico MPS 169197
2003 08 25.23855 20 45 39.08 -18 45 08.7 19.6   704 – Lincoln Laboratory ETS, New Mexico MPS 169197
2003 08 25.26421 20 45 38.06 -18 45 10.6 19.7   704 – Lincoln Laboratory ETS, New Mexico MPS 169197
2004 12 15.19073 05 44 57.10 +26 06 40.3 20.5 V 691 – Steward Observatory, Kitt Peak-Spacewatch MPS 169197
2004 12 15.21638 05 44 55.30 +26 06 39.2 20.5 V 691 – Steward Observatory, Kitt Peak-Spacewatch MPS 169197
2004 12 15.24228 05 44 53.47 +26 06 38.4 20.9 V 691 – Steward Observatory, Kitt Peak-Spacewatch MPS 169197
2006 02 25.34328 12 17 55.39 -03 15 09.1 20.6 V 691 – Steward Observatory, Kitt Peak-Spacewatch MPS 166327
2006 02 25.36059 12 17 54.73 -03 15 06.3 20.7 V 691 – Steward Observatory, Kitt Peak-Spacewatch MPS 166327
2006 02 25.37791 12 17 54.04 -03 15 03.2 20.8 V 691 – Steward Observatory, Kitt Peak-Spacewatch MPS 166327
2006 03 04.33242 12 13 01.72 -02 51 24.1   691 – Steward Observatory, Kitt Peak-Spacewatch MPS 166327
2006 03 04.34981 12 13 00.90 -02 51 20.2   691 – Steward Observatory, Kitt Peak-Spacewatch MPS 166327
2006 03 04.36720 12 13 00.01 -02 51 16.1   691 – Steward Observatory, Kitt Peak-Spacewatch MPS 166327
2006 03 08.32580 12 09 46.51 -02 34 43.4 20.9 V 691 – Steward Observatory, Kitt Peak-Spacewatch MPS 166327
2006 03 08.34314 12 09 45.57 -02 34 38.7 20.9 V 691 – Steward Observatory, Kitt Peak-Spacewatch MPS 166327
2006 03 08.36049 12 09 44.68 -02 34 34.6 21.3 V 691 – Steward Observatory, Kitt Peak-Spacewatch MPS 166327
2006 04 02.28956 11 46 12.32 -00 23 50.8 20.4 V G96 – Mt. Lemmon Survey MPS 168282
2006 04 02.29574 11 46 11.96 -00 23 49.1 20.1 V G96 – Mt. Lemmon Survey MPS 168282
2006 04 02.30167 11 46 11.64 -00 23 46.9 20.3 V G96 – Mt. Lemmon Survey MPS 168282
2006 04 02.30731 11 46 11.35 -00 23 45.3 20.0 V G96 – Mt. Lemmon Survey MPS 168282
2007 09 11.31968 00 56 06.07 +07 57 13.5 20.9 V 703 – Catalina Sky Survey MPS 215166
2007 09 11.32671 00 56 05.74 +07 57 12.1 20.6 V 703 – Catalina Sky Survey MPS 215166
2007 09 11.33380 00 56 05.28 +07 57 11.1 19.8 V 703 – Catalina Sky Survey MPS 215166
2007 09 11.34083 00 56 05.10 +07 57 08.1 20.2 V 703 – Catalina Sky Survey MPS 215166
2007 09 13.40122 00 54 32.24 +07 50 18.2 19.8 V 691 – Steward Observatory, Kitt Peak-Spacewatch MPS 215166
2007 09 13.41898 00 54 31.40 +07 50 15.3 19.7 V 691 – Steward Observatory, Kitt Peak-Spacewatch MPS 215166
2007 09 13.43667 00 54 30.50 +07 50 11.6 20.0 V 691 – Steward Observatory, Kitt Peak-Spacewatch MPS 215166
2007 09 14.31618 00 53 49.48 +07 47 03.6 19.9 V G96 – Mt. Lemmon Survey MPS 216259
2007 09 14.32176 00 53 49.27 +07 47 02.4 19.7 V G96 – Mt. Lemmon Survey MPS 216259
2007 09 14.32756 00 53 48.98 +07 47 01.2 19.9 V G96 – Mt. Lemmon Survey MPS 216259
2007 09 14.33853 00 53 48.40 +07 46 58.7 19.9 V G96 – Mt. Lemmon Survey MPS 216259
2007 10 04.31949 00 35 24.43 +06 11 58.0 19.6 V 703 – Catalina Sky Survey MPS 218396
2007 10 04.32711 00 35 23.92 +06 11 55.5 19.5 V 703 – Catalina Sky Survey MPS 218396
2007 10 04.33473 00 35 23.56 +06 11 52.5 19.2 V 703 – Catalina Sky Survey MPS 218396
2007 10 04.34234 00 35 22.99 +06 11 50.7 19.6 V 703 – Catalina Sky Survey MPS 218396
2007 10 04.39303 00 35 19.96 +06 11 34.9 19.8 V 703 – Catalina Sky Survey MPS 218396
2007 10 04.39617 00 35 19.75 +06 11 34.5 19.4 V 703 – Catalina Sky Survey MPS 218396
2007 10 04.39826 00 35 19.64 +06 11 32.8 19.0 V 703 – Catalina Sky Survey MPS 218396
2007 10 04.41201 00 35 18.85 +06 11 28.2 19.4 V 703 – Catalina Sky Survey MPS 218396
2007 10 06.20619 00 33 35.91 +06 01 43.3 19.3   704 – Lincoln Laboratory ETS, New Mexico MPS 220103
2007 10 06.21704 00 33 35.27 +06 01 39.8 20.0   704 – Lincoln Laboratory ETS, New Mexico MPS 220103
2007 10 06.22797 00 33 34.69 +06 01 35.6 20.0   704 – Lincoln Laboratory ETS, New Mexico MPS 220103
2007 10 06.23881 00 33 34.00 +06 01 32.6 20.1   704 – Lincoln Laboratory ETS, New Mexico MPS 220103
2007 10 06.24964 00 33 33.40 +06 01 29.8 19.9   704 – Lincoln Laboratory ETS, New Mexico MPS 220103
2007 10 07.22852 00 32 37.68 +05 56 10.8 19.5 V 703 – Catalina Sky Survey MPS 220103
2007 10 07.23491 00 32 37.14 +05 56 08.7 19.8 V 703 – Catalina Sky Survey MPS 220103
2007 10 07.24133 00 32 36.85 +05 56 05.4 19.7 V 703 – Catalina Sky Survey MPS 220103
2007 10 07.24777 00 32 36.42 +05 56 03.8 18.9 V 703 – Catalina Sky Survey MPS 220103
2007 10 08.20535 00 31 42.28 +05 50 53.8 19.1 C 704 – Lincoln Laboratory ETS, New Mexico MPS 291362
2007 10 08.21633 00 31 41.58 +05 50 49.0 19.5 C 704 – Lincoln Laboratory ETS, New Mexico MPS 291362
2007 10 08.23824 00 31 40.38 +05 50 42.7 19.1 C 704 – Lincoln Laboratory ETS, New Mexico MPS 291362
2007 10 08.24921 00 31 39.78 +05 50 39.5 19.3 C 704 – Lincoln Laboratory ETS, New Mexico MPS 291362
2007 10 10.29655 00 29 45.74 +05 39 37.6 19.8 V G96 – Mt. Lemmon Survey MPS 220103
2007 10 10.30363 00 29 45.34 +05 39 35.4 20.0 V G96 – Mt. Lemmon Survey MPS 220103
2007 10 10.31072 00 29 44.91 +05 39 33.0 19.9 V G96 – Mt. Lemmon Survey MPS 220103
2007 10 10.31777 00 29 44.52 +05 39 30.8 19.8 V G96 – Mt. Lemmon Survey MPS 220103
2007 10 14.22101 00 26 16.73 +05 18 59.3 19.7 R 683 – Goodricke-Pigott Observatory, Tucson MPS 222343
2007 10 14.23442 00 26 15.85 +05 18 56.3 20.8 R 683 – Goodricke-Pigott Observatory, Tucson MPS 222343
2007 10 14.24778 00 26 15.14 +05 18 52.3 20.9 R 683 – Goodricke-Pigott Observatory, Tucson MPS 222343
